Location: Mountain Grove
(34.0887°N, 86.6172°W)
Time: 15:12:06
(UTC+00:00)

Sich 1 Rocket - Pass Details

Date: 14 July 2020
Orbit: 615 x 653 km, 82.5° (Epoch: 12 August)

Event Time Altitude Azimuth Distance (km) Brightness Sun altitude
Exits shadow 09:45:03 12° 204° (SSW) 1,909 5.5 -11.6°
Maximum altitude 09:49:07 51° 278° (W) 815 3.9 -10.9°
Drops below altitude 10° 09:53:32 10° 355° (N) 2,038 6.6 -10.1°
Sets 09:55:50 0° 1° (N) 2,945 7.6 -9.7°
